SWA783 MDPC-KMCO

Flight info

Callsign SWA783
Flight time 1h 49m
Altitude 34000
Route MALVN2T MALVN DCT RUMFO Y443 SUMAC Y280 OCTAL MUNGI1
Aircraft B738/M-SDE2E3FGHIRWXY/LB1

Departure

Time 2026-05-04 13:17
Airport Punta Cana International Airport (MDPC)

Arrival

Time 2026-05-04 15:07
Airport Orlando International Airport (KMCO)
Time Latitude Longitude Altitude Speed Heading
2026-05-04 12:49 18.56402 -68.36807 49 ft 0 kts 265°
2026-05-04 13:10 18.56402 -68.36797 22 ft 4 kts 265°
2026-05-04 13:10 18.56404 -68.36769 49 ft 4 kts 277°
2026-05-04 13:11 18.56397 -68.36747 49 ft 4 kts 335°
2026-05-04 13:11 18.56387 -68.36744 49 ft 1 kts 355°
2026-05-04 13:11 18.56386 -68.36744 49 ft 0 kts 355°
2026-05-04 13:14 18.56402 -68.36745 49 ft 4 kts 355°
2026-05-04 13:14 18.56434 -68.36746 49 ft 8 kts 356°
2026-05-04 13:14 18.56521 -68.36774 49 ft 14 kts 283°
2026-05-04 13:14 18.56513 -68.36872 49 ft 13 kts 265°
2026-05-04 13:15 18.56506 -68.36967 49 ft 13 kts 264°
2026-05-04 13:15 18.56497 -68.37061 50 ft 14 kts 264°
2026-05-04 13:15 18.56487 -68.37173 49 ft 18 kts 261°
2026-05-04 13:15 18.56474 -68.37326 49 ft 22 kts 266°
2026-05-04 13:16 18.56461 -68.37483 46 ft 21 kts 264°
2026-05-04 13:16 18.56449 -68.37636 49 ft 21 kts 264°
2026-05-04 13:16 18.56468 -68.37774 50 ft 20 kts 324°
2026-05-04 13:16 18.56584 -68.37784 48 ft 15 kts 17°
2026-05-04 13:17 18.56620 -68.37686 50 ft 20 kts 84°
2026-05-04 13:17 18.56659 -68.37235 50 ft 104 kts 84°
2026-05-04 13:17 18.56753 -68.36208 96 ft 172 kts 85°
2026-05-04 13:17 18.56867 -68.34928 1067 ft 170 kts 90°
2026-05-04 13:18 18.56935 -68.33738 2258 ft 159 kts 88°
2026-05-04 13:18 18.57014 -68.32630 3221 ft 145 kts 89°
2026-05-04 13:18 18.57029 -68.31498 3506 ft 169 kts 104°
2026-05-04 13:18 18.56643 -68.30197 3688 ft 199 kts 110°
2026-05-04 13:19 18.56179 -68.28728 3867 ft 224 kts 116°
2026-05-04 13:19 18.55551 -68.27822 4009 ft 241 kts 136°
2026-05-04 13:19 18.53572 -68.26563 4677 ft 259 kts 165°
2026-05-04 13:19 18.51754 -68.26522 4966 ft 268 kts 191°
2026-05-04 13:20 18.50623 -68.27049 4988 ft 272 kts 213°
2026-05-04 13:20 18.49199 -68.28382 5272 ft 276 kts 220°
2026-05-04 13:20 18.47862 -68.29879 5844 ft 287 kts 234°
2026-05-04 13:20 18.47195 -68.31877 6511 ft 295 kts 263°
2026-05-04 13:21 18.47074 -68.34037 7212 ft 296 kts 267°
2026-05-04 13:21 18.47020 -68.36206 7899 ft 298 kts 268°
2026-05-04 13:21 18.46971 -68.38413 8490 ft 303 kts 268°
2026-05-04 13:21 18.46918 -68.40644 9138 ft 306 kts 267°
2026-05-04 13:22 18.46853 -68.42883 9940 ft 303 kts 267°
2026-05-04 13:22 18.46780 -68.45075 10651 ft 302 kts 266°
2026-05-04 13:22 18.46696 -68.47344 10947 ft 317 kts 266°
2026-05-04 13:22 18.46607 -68.49739 10996 ft 340 kts 266°
2026-05-04 13:23 18.46514 -68.52305 11022 ft 361 kts 266°
2026-05-04 13:23 18.46651 -68.54973 10980 ft 370 kts 283°
2026-05-04 13:23 18.47644 -68.57504 11330 ft 376 kts 295°
2026-05-04 13:23 18.48813 -68.59966 11955 ft 376 kts 295°
2026-05-04 13:24 18.49973 -68.62393 12568 ft 376 kts 295°
2026-05-04 13:24 18.51147 -68.64864 13172 ft 378 kts 294°
2026-05-04 13:24 18.52320 -68.67351 13757 ft 380 kts 294°
2026-05-04 13:25 18.54432 -68.72364 15287 ft 365 kts 291°
2026-05-04 13:25 18.55614 -68.74779 15605 ft 378 kts 297°
2026-05-04 13:25 18.56909 -68.77230 15925 ft 386 kts 296°
2026-05-04 13:25 18.58133 -68.79757 16461 ft 387 kts 294°
2026-05-04 13:26 18.59312 -68.82304 17075 ft 386 kts 293°
2026-05-04 13:26 18.60485 -68.84865 17663 ft 387 kts 293°
2026-05-04 13:26 18.61645 -68.87383 18231 ft 387 kts 293°
2026-05-04 13:26 18.62829 -68.89941 18731 ft 389 kts 294°
2026-05-04 13:27 18.64023 -68.92517 19058 ft 394 kts 294°
2026-05-04 13:27 18.65236 -68.95133 19385 ft 399 kts 294°
2026-05-04 13:27 18.66466 -68.97776 19769 ft 403 kts 294°
2026-05-04 13:27 18.67705 -69.00444 20129 ft 406 kts 294°
2026-05-04 13:28 18.68951 -69.03139 20485 ft 410 kts 294°
2026-05-04 13:28 18.70204 -69.05853 20847 ft 414 kts 294°
2026-05-04 13:28 18.71473 -69.08599 21186 ft 417 kts 294°
2026-05-04 13:28 18.72751 -69.11364 21525 ft 421 kts 294°
2026-05-04 13:29 18.74041 -69.14154 21853 ft 424 kts 295°
2026-05-04 13:29 18.75325 -69.16932 22188 ft 428 kts 295°
2026-05-04 13:29 18.76635 -69.19770 22521 ft 431 kts 294°
2026-05-04 13:29 18.77951 -69.22626 22868 ft 434 kts 295°
2026-05-04 13:30 18.79274 -69.25498 23176 ft 437 kts 295°
2026-05-04 13:30 18.80610 -69.28397 23469 ft 440 kts 295°
2026-05-04 13:30 18.81993 -69.31293 23738 ft 443 kts 295°
2026-05-04 13:30 18.83349 -69.34224 24020 ft 445 kts 294°
2026-05-04 13:31 18.84690 -69.37168 24367 ft 444 kts 294°
2026-05-04 13:31 18.86025 -69.40105 24728 ft 443 kts 294°
2026-05-04 13:31 18.87362 -69.43041 25038 ft 444 kts 294°
2026-05-04 13:31 18.88703 -69.45979 25309 ft 446 kts 295°
2026-05-04 13:32 18.90058 -69.48938 25571 ft 447 kts 295°
2026-05-04 13:32 18.91416 -69.51899 25847 ft 448 kts 295°
2026-05-04 13:32 18.92776 -69.54864 26140 ft 449 kts 295°
2026-05-04 13:32 18.94140 -69.57839 26439 ft 449 kts 295°
2026-05-04 13:33 18.95505 -69.60816 26720 ft 450 kts 295°
2026-05-04 13:33 18.96873 -69.63802 26974 ft 451 kts 295°
2026-05-04 13:33 18.98226 -69.66756 27239 ft 452 kts 294°
2026-05-04 13:33 18.99595 -69.69747 27487 ft 453 kts 294°
2026-05-04 13:34 19.00970 -69.72754 27734 ft 454 kts 294°
2026-05-04 13:34 19.02345 -69.75762 27965 ft 455 kts 294°
2026-05-04 13:34 19.03722 -69.78775 28206 ft 456 kts 294°
2026-05-04 13:34 19.05104 -69.81801 28450 ft 457 kts 294°
2026-05-04 13:35 19.06485 -69.84828 28797 ft 455 kts 294°
2026-05-04 13:35 19.09222 -69.90826 29586 ft 450 kts 294°
2026-05-04 13:35 19.10580 -69.93807 29960 ft 448 kts 294°
2026-05-04 13:36 19.11933 -69.96776 30286 ft 447 kts 294°
2026-05-04 13:36 19.13282 -69.99741 30538 ft 447 kts 294°
2026-05-04 13:36 19.14632 -70.02708 30747 ft 449 kts 294°
2026-05-04 13:36 19.15984 -70.05681 30986 ft 449 kts 294°
2026-05-04 13:37 19.17337 -70.08658 31254 ft 449 kts 294°
2026-05-04 13:37 19.18690 -70.11637 31519 ft 449 kts 294°
2026-05-04 13:37 19.20042 -70.14613 31761 ft 449 kts 294°
2026-05-04 13:37 19.20937 -70.16586 31923 ft 450 kts 294°
2026-05-04 13:38 19.22730 -70.20538 32255 ft 450 kts 294°
2026-05-04 13:38 19.24083 -70.23522 32538 ft 449 kts 294°
2026-05-04 13:38 19.25433 -70.26502 32810 ft 449 kts 294°
2026-05-04 13:38 19.26784 -70.29485 33052 ft 450 kts 294°
2026-05-04 13:39 19.28135 -70.32470 33314 ft 449 kts 294°
2026-05-04 13:39 19.29484 -70.35452 33611 ft 449 kts 294°
2026-05-04 13:39 19.30829 -70.38427 33885 ft 448 kts 294°
2026-05-04 13:39 19.32177 -70.41411 34065 ft 450 kts 294°
2026-05-04 13:40 19.33531 -70.44408 34040 ft 453 kts 294°
2026-05-04 13:40 19.36240 -70.50411 34039 ft 449 kts 294°
2026-05-04 13:41 19.38924 -70.56363 34057 ft 446 kts 294°
2026-05-04 13:41 19.42364 -70.61774 34051 ft 449 kts 317°
2026-05-04 13:42 19.49924 -70.67641 34050 ft 448 kts 322°
2026-05-04 13:42 19.54964 -70.71455 34054 ft 447 kts 322°
2026-05-04 13:43 19.59997 -70.75331 34043 ft 447 kts 321°
2026-05-04 13:43 19.65015 -70.79232 34046 ft 447 kts 321°
2026-05-04 13:44 19.70035 -70.83144 34037 ft 449 kts 321°
2026-05-04 13:44 19.75071 -70.87073 34050 ft 450 kts 320°
2026-05-04 13:45 19.80096 -70.90993 34044 ft 451 kts 321°
2026-05-04 13:45 19.85189 -70.94966 34042 ft 451 kts 321°
2026-05-04 13:46 19.90223 -70.98897 34044 ft 451 kts 321°
2026-05-04 13:46 19.95274 -71.02845 34037 ft 450 kts 321°
2026-05-04 13:47 20.00309 -71.06784 34041 ft 449 kts 321°
2026-05-04 13:47 20.05346 -71.10730 34044 ft 448 kts 321°
2026-05-04 13:48 20.10337 -71.14641 34051 ft 447 kts 320°
2026-05-04 13:48 20.15348 -71.18570 34038 ft 447 kts 320°
2026-05-04 13:49 20.20348 -71.22494 34037 ft 446 kts 320°
2026-05-04 13:49 20.25332 -71.26410 34037 ft 445 kts 320°
2026-05-04 13:50 20.30316 -71.30329 34037 ft 445 kts 320°
2026-05-04 13:50 20.35294 -71.34248 34039 ft 444 kts 320°
2026-05-04 13:51 20.40267 -71.38164 34039 ft 444 kts 321°
2026-05-04 13:51 20.42602 -71.40303 34016 ft 439 kts 307°
2026-05-04 13:51 20.44470 -71.42812 34059 ft 437 kts 305°
2026-05-04 13:52 20.50091 -71.50501 34034 ft 439 kts 306°
2026-05-04 13:53 20.53881 -71.55627 34045 ft 440 kts 306°
2026-05-04 13:53 20.57680 -71.60754 34043 ft 441 kts 306°
2026-05-04 13:54 20.63399 -71.68452 34041 ft 442 kts 306°
2026-05-04 13:55 20.69128 -71.76169 34041 ft 442 kts 306°
2026-05-04 13:55 20.74834 -71.83866 34038 ft 442 kts 306°
2026-05-04 13:56 20.78652 -71.89024 34032 ft 442 kts 306°
2026-05-04 13:57 20.84366 -71.96751 34048 ft 442 kts 305°
2026-05-04 13:58 20.91975 -72.07056 34033 ft 440 kts 305°
2026-05-04 13:58 20.97634 -72.14734 34037 ft 438 kts 305°
2026-05-04 13:59 21.01406 -72.19857 34036 ft 438 kts 305°
2026-05-04 14:00 21.07052 -72.27534 34036 ft 437 kts 305°
2026-05-04 14:00 21.12691 -72.35212 34040 ft 437 kts 305°
2026-05-04 14:01 21.16447 -72.40333 34042 ft 437 kts 305°
2026-05-04 14:02 21.22060 -72.47992 34044 ft 437 kts 304°
2026-05-04 14:02 21.25827 -72.53130 34042 ft 438 kts 305°
2026-05-04 14:03 21.29586 -72.58262 34037 ft 438 kts 305°
2026-05-04 14:03 21.33338 -72.63407 34042 ft 438 kts 304°
2026-05-04 14:04 21.38966 -72.71133 34041 ft 438 kts 304°
2026-05-04 14:04 21.42088 -72.75415 34041 ft 438 kts 304°
2026-05-04 14:05 21.47721 -72.83133 34040 ft 438 kts 305°
2026-05-04 14:06 21.51478 -72.88284 34040 ft 438 kts 305°
2026-05-04 14:06 21.55221 -72.93434 34044 ft 437 kts 305°
2026-05-04 14:07 21.58958 -72.98600 34054 ft 437 kts 304°
2026-05-04 14:07 21.62662 -73.03725 34046 ft 437 kts 304°
2026-05-04 14:08 21.66417 -73.08909 34030 ft 436 kts 304°
2026-05-04 14:08 21.70124 -73.14026 34037 ft 435 kts 304°
2026-05-04 14:09 21.75702 -73.21738 34046 ft 434 kts 304°
2026-05-04 14:10 21.81259 -73.29434 34049 ft 434 kts 304°
2026-05-04 14:10 21.84956 -73.34561 34046 ft 433 kts 304°
2026-05-04 14:11 21.88625 -73.39654 34048 ft 433 kts 304°
2026-05-04 14:11 21.94153 -73.47336 34072 ft 432 kts 304°
2026-05-04 14:12 21.97841 -73.52468 34047 ft 432 kts 304°
2026-05-04 14:13 22.03358 -73.60153 34047 ft 432 kts 303°
2026-05-04 14:13 22.07031 -73.65276 34058 ft 431 kts 303°
2026-05-04 14:14 22.10676 -73.70364 34044 ft 431 kts 303°
2026-05-04 14:14 22.16171 -73.78042 34051 ft 430 kts 303°
2026-05-04 14:15 22.23482 -73.88253 34050 ft 429 kts 303°
2026-05-04 14:16 22.28916 -73.95890 34053 ft 428 kts 303°
2026-05-04 14:17 22.34351 -74.03525 34053 ft 423 kts 303°
2026-05-04 14:18 22.39693 -74.11025 34058 ft 419 kts 302°
2026-05-04 14:19 22.46786 -74.21036 34050 ft 420 kts 303°
2026-05-04 14:19 22.50340 -74.26049 34050 ft 420 kts 303°
2026-05-04 14:20 22.53879 -74.31045 34050 ft 421 kts 303°
2026-05-04 14:20 22.57436 -74.36072 34052 ft 421 kts 302°
2026-05-04 14:21 22.62782 -74.43637 34049 ft 422 kts 302°
2026-05-04 14:21 22.66344 -74.48684 34068 ft 421 kts 302°
2026-05-04 14:22 22.69905 -74.53734 34050 ft 421 kts 302°
2026-05-04 14:22 22.73458 -74.58777 34049 ft 421 kts 302°
2026-05-04 14:23 22.78763 -74.66316 34052 ft 420 kts 302°
2026-05-04 14:24 22.82305 -74.71353 34051 ft 420 kts 302°
2026-05-04 14:24 22.85854 -74.76390 34053 ft 420 kts 303°
2026-05-04 14:25 22.89386 -74.81424 34049 ft 419 kts 302°
2026-05-04 14:25 22.94663 -74.88985 34049 ft 419 kts 302°
2026-05-04 14:26 22.98169 -74.93983 34050 ft 419 kts 302°
2026-05-04 14:26 23.01686 -74.99021 34052 ft 419 kts 302°
2026-05-04 14:27 23.05205 -75.04064 34058 ft 419 kts 301°
2026-05-04 14:27 23.08750 -75.09089 34062 ft 421 kts 304°
2026-05-04 14:28 23.12998 -75.13563 34053 ft 426 kts 311°
2026-05-04 14:28 23.17388 -75.17893 34049 ft 425 kts 310°
2026-05-04 14:29 23.21269 -75.22561 34053 ft 412 kts 297°
2026-05-04 14:29 23.24436 -75.27761 34053 ft 412 kts 297°
2026-05-04 14:30 23.27615 -75.32938 34045 ft 411 kts 298°
2026-05-04 14:31 23.32398 -75.40690 34048 ft 411 kts 298°
2026-05-04 14:32 23.38801 -75.51028 34075 ft 411 kts 298°
2026-05-04 14:32 23.41959 -75.56185 34058 ft 412 kts 298°
2026-05-04 14:33 23.45152 -75.61373 34048 ft 412 kts 298°
2026-05-04 14:33 23.48343 -75.66554 34049 ft 412 kts 298°
2026-05-04 14:34 23.51537 -75.71745 34051 ft 412 kts 298°
2026-05-04 14:34 23.54721 -75.76925 34045 ft 412 kts 298°
2026-05-04 14:35 23.57902 -75.82107 34044 ft 411 kts 298°
2026-05-04 14:35 23.61068 -75.87269 34047 ft 411 kts 298°
2026-05-04 14:36 23.64252 -75.92467 34049 ft 411 kts 298°
2026-05-04 14:36 23.67431 -75.97662 34046 ft 412 kts 297°
2026-05-04 14:37 23.70607 -76.02857 34044 ft 412 kts 297°
2026-05-04 14:37 23.73786 -76.08062 34050 ft 412 kts 297°
2026-05-04 14:38 23.76966 -76.13273 34053 ft 413 kts 297°
2026-05-04 14:38 23.80148 -76.18496 34048 ft 413 kts 297°
2026-05-04 14:39 23.85694 -76.27608 34042 ft 414 kts 297°
2026-05-04 14:39 24.16101 -76.77903 34153 ft 414 kts 297°
2026-05-04 14:39 24.44466 -77.24874 34195 ft 415 kts 297°
2026-05-04 14:40 24.66237 -77.62285 34052 ft 415 kts 298°
2026-05-04 14:40 24.67849 -77.64902 34038 ft 411 kts 298°
2026-05-04 14:40 24.71105 -77.70211 34049 ft 408 kts 297°
2026-05-04 14:41 24.91328 -78.04331 34082 ft 409 kts 297°
2026-05-04 14:42 24.97468 -78.14933 34039 ft 410 kts 297°
2026-05-04 14:42 25.00531 -78.20184 34040 ft 409 kts 297°
2026-05-04 14:43 25.03772 -78.25738 34039 ft 409 kts 297°
2026-05-04 14:43 25.55690 -79.15603 34138 ft 402 kts 298°
2026-05-04 14:44 25.78861 -79.57420 34066 ft 400 kts 301°
2026-05-04 14:44 26.15351 -80.21201 34048 ft 390 kts 300°
2026-05-04 14:45 26.17233 -80.23419 34047 ft 403 kts 320°
2026-05-04 14:45 26.19855 -80.24699 34045 ft 421 kts 338°
2026-05-04 14:45 26.39636 -80.29934 34037 ft 419 kts 337°
2026-05-04 14:46 26.67020 -80.38432 29658 ft 384 kts 323°
2026-05-04 14:46 26.69071 -80.40153 29443 ft 360 kts 310°
2026-05-04 14:46 26.70809 -80.42121 29161 ft 351 kts 308°
2026-05-04 14:46 26.72521 -80.44046 28867 ft 349 kts 313°
2026-05-04 14:47 26.89627 -80.54067 26638 ft 338 kts 327°
2026-05-04 14:47 27.18584 -80.67881 21783 ft 336 kts 332°
2026-05-04 14:47 27.20792 -80.68803 21232 ft 341 kts 333°
2026-05-04 14:47 27.23026 -80.69716 20751 ft 342 kts 333°
2026-05-04 14:48 27.25246 -80.70659 20389 ft 340 kts 332°
2026-05-04 14:48 27.27437 -80.71632 20058 ft 336 kts 332°
2026-05-04 14:48 27.29598 -80.72626 19676 ft 335 kts 331°
2026-05-04 14:48 27.31717 -80.73625 19292 ft 334 kts 331°
2026-05-04 14:49 27.33852 -80.74647 18929 ft 333 kts 331°
2026-05-04 14:49 27.35979 -80.75674 18564 ft 332 kts 331°
2026-05-04 14:49 27.38097 -80.76703 18176 ft 331 kts 331°
2026-05-04 14:49 27.40209 -80.77732 17778 ft 330 kts 331°
2026-05-04 14:50 27.42306 -80.78755 17455 ft 328 kts 331°
2026-05-04 14:50 27.44395 -80.79775 17105 ft 326 kts 331°
2026-05-04 14:50 27.46469 -80.80789 16726 ft 325 kts 331°
2026-05-04 14:50 27.48539 -80.81800 16351 ft 324 kts 332°
2026-05-04 14:51 27.49907 -80.82466 16102 ft 323 kts 332°
2026-05-04 14:51 27.51971 -80.83477 15746 ft 321 kts 332°
2026-05-04 14:51 27.54014 -80.84480 15407 ft 319 kts 332°
2026-05-04 14:51 27.56712 -80.85804 14915 ft 318 kts 332°
2026-05-04 14:52 27.58081 -80.86476 14692 ft 318 kts 332°
2026-05-04 14:52 27.60103 -80.87468 14360 ft 316 kts 332°
2026-05-04 14:52 27.62095 -80.88445 14038 ft 315 kts 333°
2026-05-04 14:52 27.64106 -80.89433 13685 ft 314 kts 333°
2026-05-04 14:53 27.66107 -80.90415 13344 ft 312 kts 333°
2026-05-04 14:53 27.68097 -80.91392 13009 ft 311 kts 333°
2026-05-04 14:53 27.70077 -80.92366 12636 ft 309 kts 333°
2026-05-04 14:53 27.72045 -80.93333 12289 ft 308 kts 333°
2026-05-04 14:54 27.74006 -80.94297 11962 ft 307 kts 333°
2026-05-04 14:54 27.75959 -80.95258 11632 ft 306 kts 333°
2026-05-04 14:54 27.77908 -80.96218 11299 ft 305 kts 333°
2026-05-04 14:54 27.79849 -80.97174 10958 ft 304 kts 333°
2026-05-04 14:55 27.81750 -80.98110 10703 ft 299 kts 333°
2026-05-04 14:55 27.83620 -80.99030 10489 ft 289 kts 333°
2026-05-04 14:55 27.85438 -80.99926 10230 ft 281 kts 333°
2026-05-04 14:55 27.87233 -81.00811 9916 ft 276 kts 333°
2026-05-04 14:56 27.88959 -81.01664 9546 ft 273 kts 333°
2026-05-04 14:56 27.90701 -81.02524 9021 ft 276 kts 334°
2026-05-04 14:56 27.92429 -81.03377 8787 ft 268 kts 334°
2026-05-04 14:56 27.94129 -81.04198 8492 ft 263 kts 335°
2026-05-04 14:57 27.95828 -81.04925 8214 ft 260 kts 338°
2026-05-04 14:57 27.97532 -81.05633 7943 ft 262 kts 337°
2026-05-04 14:57 27.99248 -81.06349 7677 ft 264 kts 337°
2026-05-04 14:57 28.00948 -81.07071 7395 ft 259 kts 338°
2026-05-04 14:58 28.02645 -81.07787 7140 ft 261 kts 339°
2026-05-04 14:58 28.04355 -81.08504 6877 ft 262 kts 339°
2026-05-04 14:58 28.06064 -81.09223 6607 ft 262 kts 340°
2026-05-04 14:58 28.07750 -81.09935 6481 ft 255 kts 340°
2026-05-04 14:59 28.09400 -81.10629 6346 ft 249 kts 340°
2026-05-04 14:59 28.10978 -81.11368 6216 ft 244 kts 329°
2026-05-04 14:59 28.13351 -81.13979 5784 ft 237 kts 313°
2026-05-04 15:00 28.14462 -81.15359 5422 ft 236 kts 313°
2026-05-04 15:00 28.15560 -81.16747 5060 ft 236 kts 314°
2026-05-04 15:00 28.16708 -81.18080 4706 ft 236 kts 318°
2026-05-04 15:01 28.19023 -81.20664 3981 ft 231 kts 317°
2026-05-04 15:01 28.20143 -81.21938 3609 ft 224 kts 317°
2026-05-04 15:01 28.21234 -81.23166 3262 ft 217 kts 318°
2026-05-04 15:01 28.22307 -81.24314 3035 ft 204 kts 324°
2026-05-04 15:02 28.23314 -81.25331 2997 ft 184 kts 323°
2026-05-04 15:02 28.24211 -81.26230 2943 ft 164 kts 325°
2026-05-04 15:02 28.25016 -81.27073 2968 ft 157 kts 323°
2026-05-04 15:02 28.25967 -81.27929 3031 ft 193 kts 339°
2026-05-04 15:03 28.27262 -81.28063 2942 ft 186 kts
2026-05-04 15:03 28.28565 -81.28058 2683 ft 186 kts 359°
2026-05-04 15:03 28.29826 -81.28139 2436 ft 174 kts
2026-05-04 15:03 28.30989 -81.28132 2229 ft 160 kts
2026-05-04 15:04 28.32065 -81.28136 2004 ft 147 kts
2026-05-04 15:04 28.33033 -81.28144 1839 ft 138 kts
2026-05-04 15:04 28.34010 -81.28140 1637 ft 144 kts
2026-05-04 15:04 28.34986 -81.28161 1393 ft 138 kts
2026-05-04 15:05 28.35925 -81.28191 1285 ft 133 kts
2026-05-04 15:05 28.36870 -81.28190 1167 ft 139 kts
2026-05-04 15:05 28.37834 -81.28198 1003 ft 140 kts
2026-05-04 15:05 28.38826 -81.28202 747 ft 144 kts
2026-05-04 15:06 28.39815 -81.28216 571 ft 140 kts
2026-05-04 15:06 28.40769 -81.28220 353 ft 132 kts
2026-05-04 15:06 28.41691 -81.28229 195 ft 134 kts
2026-05-04 15:07 28.43163 -81.28245 100 ft 50 kts 359°
2026-05-04 15:07 28.43412 -81.28253 100 ft 28 kts 352°
2026-05-04 15:07 28.43526 -81.28316 101 ft 12 kts 315°
2026-05-04 15:07 28.43591 -81.28371 103 ft 12 kts 346°
2026-05-04 15:08 28.43687 -81.28376 104 ft 14 kts 359°
2026-05-04 15:08 28.43781 -81.28377 105 ft 13 kts 360°
2026-05-04 15:08 28.43868 -81.28396 107 ft 13 kts 311°
2026-05-04 15:08 28.43876 -81.28488 106 ft 13 kts 269°
2026-05-04 15:09 28.43874 -81.28621 106 ft 18 kts 269°
2026-05-04 15:09 28.43873 -81.28802 106 ft 29 kts 270°
2026-05-04 15:09 28.43871 -81.29039 106 ft 30 kts 271°
2026-05-04 15:10 28.43704 -81.29262 101 ft 21 kts 179°
2026-05-04 15:10 28.43567 -81.29276 103 ft 19 kts 216°
2026-05-04 15:10 28.43553 -81.29569 102 ft 18 kts 270°
2026-05-04 15:11 28.43549 -81.29686 102 ft 14 kts 269°
2026-05-04 15:11 28.43550 -81.29793 103 ft 13 kts 271°
2026-05-04 15:11 28.43520 -81.29881 100 ft 13 kts 191°
2026-05-04 15:11 28.43437 -81.29886 100 ft 12 kts 189°
2026-05-04 15:12 28.43423 -81.29959 100 ft 10 kts 284°
2026-05-04 15:12 28.43430 -81.29991 100 ft 0 kts 284°